Location: T�bingen+AIT
(48.5342°N, 9.0700°E)
Time: 23:35:18
(UTC+01:00)

Daily predictions for brighter satellites

Satellite Brightness Start Highest point End
(mag) Time Altitude Azimuth Time Altitude Azimuth Time Altitude Azimuth
Envisat 3.4 19:03:18 10° S 19:08:21 71° WSW 19:13:28 10° NNW
CZ-4C R/B 3.3 19:02:01 10° NW 19:08:35 47° NE 19:16:07 10° ESE
Cosmos 1992 Rocket 4.1 19:07:04 10° NNW 19:12:20 86° WSW 19:17:33 10° SSE
USA 234 4.1 19:06:56 10° ENE 19:13:01 43° N 19:19:05 10° WNW
FREGAT/IRIS 2.7 19:11:42 10° SSE 19:14:28 49° ENE 19:17:17 10° N
Cosmos 2100 Rocket 4.3 19:11:47 10° N 19:17:51 49° ENE 19:23:56 10° SSE
SPOT 3 Rocket 3.7 19:13:35 10° SSE 19:18:41 57° ENE 19:23:49 10° N
Cosmos 1674 4.2 19:19:41 10° NNE 19:22:22 18° ENE 19:25:02 10° ESE
CZ-4 R/B 4.1 19:19:11 10° SSW 19:22:40 25° W 19:26:12 10° NW
Cosmos 2173 Rocket 4.2 19:19:49 10° N 19:25:47 51° ENE 19:31:46 10° SSE
Cosmos 2061 Rocket 4.5 19:19:56 10° N 19:25:52 42° ENE 19:31:52 10° SE
Cosmos 2251 Rocket 4.1 19:21:25 10° SSW 19:26:40 65° WNW 19:32:01 10° NNE
Cosmos 1697 Rocket 2.8 19:23:57 10° S 19:29:28 57° ESE 19:35:00 10° NE
H-2A R/B 3.2 19:26:39 10° ESE 19:31:01 26° ENE 19:35:20 10° N
Cosmos 724 4.4 19:27:21 10° SSW 19:33:32 81° SE 19:39:49 10° NE
Cosmos 2369 3.7 19:28:31 10° SSW 19:34:10 76° ESE 19:39:52 10° NNE
Cosmos 1802 Rocket 4.2 19:29:16 10° N 19:35:17 51° ENE 19:41:14 10° SSE
NOAA 11 4.2 19:30:01 10° SSE 19:35:25 74° ENE 19:40:53 10° N
Cosmos 1939 Rocket 2.9 19:36:19 10° SSE 19:40:19 84° WSW 19:44:26 10° NNW
Cosmos 1602 Rocket 3.7 19:39:15 10° N 19:43:33 52° ENE 19:47:51 10° SSE
Iridium 4 Rocket 3.8 19:39:26 10° SSE 19:43:47 40° E 19:48:33 10° NNE
Cosmos 1725 Rocket 4.5 19:38:11 10° N 19:44:05 40° ENE 19:49:55 10° SE
Cosmos 1544 Rocket 3.5 19:42:44 10° S 19:47:05 89° W 19:51:28 10° N
Cosmos 2297 Rocket 4.0 19:45:01 10° NW 19:50:00 33° WSW 19:54:59 10° SSW
Cosmos 2278 3.7 19:44:23 10° SSW 19:50:04 81° ESE 19:55:48 10° NNE
In-Cosmos 22 4.2 19:45:00 10° N 19:50:40 86° ENE 19:56:09 10° SSE
Cosmos 2263 Rocket 2.9 19:45:45 10° NNW 19:50:53 36° NE 19:54:24 18° ESE
CZ-2C R/B 4.1 19:46:53 10° N 19:51:35 71° WNW 19:56:18 10° SSW
Cosmos 1656 4.1 19:46:05 10° SW 19:51:37 66° WNW 19:57:07 10° NNE
Resurs 01 Rocket 2.3 19:48:39 15° SE 19:51:48 35° ENE 19:55:51 10° N
Cosmos 2227 4.4 19:46:13 10° NNW 19:51:54 55° ENE 19:56:31 15° SE
Aureole 2 Rocket 3.9 19:50:32 10° SW 19:53:44 38° WNW 19:56:46 10° N
SL-16 R/B 3.5 19:53:54 18° ESE 19:54:08 18° E 19:57:48 10° ENE
Cosmos 1459 Rocket 4.0 19:48:27 10° N 19:54:51 82° E 20:01:07 10° S
GP-B 3.8 19:51:39 10° SSW 19:56:01 57° W 20:00:25 10° N
NOSS 3-2 (A) 4.4 19:52:37 10° SSE 19:56:53 21° ESE 20:01:29 10° ENE
Cosmos 405 3.8 20:00:05 10° N 20:03:16 32° ENE 20:04:06 28° E
SJ-6B 2.9 19:59:50 10° S 20:03:38 73° WSW 20:07:24 10° NNW
Cosmos 1805 3.5 20:00:51 10° SSE 20:04:32 44° E 20:08:16 10° NNE
Genesis I 3.8 20:03:02 10° NNW 20:06:58 44° NE 20:08:39 28° E
Meteor 1-24 Rocket 3.5 20:04:09 10° N 20:09:35 74° ENE 20:14:53 10° SSE
CZ-2C R/B 4.2 20:11:02 21° E 20:12:20 23° ENE 20:16:13 10° N
Cosmos 1190 Rocket 4.0 20:07:09 10° S 20:12:24 67° ESE 20:17:40 10° NNE
ATLAS 3B R/B 3.6 20:07:39 10° SSE 20:15:48 17° ENE 20:17:46 10° ENE
Cosmos 1340 3.8 20:09:55 10° SSW 20:13:33 46° WNW 20:17:14 10° N
Cosmos 1455 Rocket 4.4 20:09:55 10° SSW 20:14:07 43° WNW 20:18:20 10° N
Cosmos 292 Rocket 4.2 20:09:58 10° NNW 20:14:34 44° ENE 20:16:31 29° ESE
Meteor 2-5 Rocket 3.9 20:09:32 10° NNW 20:15:06 72° W 20:20:36 10° S
USA 267 4.4 20:19:35 21° SE 20:19:35 21° SE 20:23:27 10° S
USA 186 3.0 20:16:50 10° S 20:20:04 42° W 20:23:13 10° NNW
Cosmos 1980 Rocket 2.1 20:18:13 10° SSW 20:23:53 83° ESE 20:29:37 10° NNE
Cosmos 407 Rocket 3.4 20:19:08 10° SSW 20:24:25 87° ESE 20:29:41 10° NNE
ISS -3.9 20:21:46 10° SW 20:25:02 61° SSE 20:25:17 58° SE
Cosmos 614 Rocket 3.9 20:22:03 10° SSW 20:27:12 73° ESE 20:32:26 10° NNE
Cosmos 1825 Rocket 3.6 20:26:15 10° N 20:30:38 60° ENE 20:32:07 38° SE
Cosmos 1461 3.1 20:27:00 10° SW 20:31:28 77° NW 20:35:47 10° NE
Cosmos 2285 Rocket 4.1 20:26:51 10° S 20:32:56 51° ESE 20:39:07 10° NNE
Cosmos 1758 4.4 20:34:16 29° NE 20:34:16 29° NE 20:36:44 10° NNE
Terra 3.8 20:36:01 14° NE 20:36:01 14° NE 20:38:05 10° NNE
ARGOS 3.1 20:33:51 22° SSE 20:37:27 85° ENE 20:42:52 10° NNW
Cosmos 1606 Rocket 3.7 20:38:00 46° E 20:38:00 46° E 20:42:09 10° NNE
MTI 3.7 20:36:39 10° NNE 20:39:29 69° NNE 20:39:29 69° NNE
Cosmos 1844 Rocket 4.0 20:35:31 10° N 20:39:58 24° NE 20:41:16 22° ENE
SL-4 R/B 2.5 20:38:10 10° W 20:42:29 57° N 20:43:48 38° NE
MetOp-A 4.0 20:43:49 33° SSE 20:46:17 79° ENE 20:51:40 10° NNW
Cosmos 1758 Rocket 3.5 20:42:16 10° N 20:46:48 87° E 20:48:14 44° SSE
ERS-1 Rocket 3.8 20:47:22 33° ENE 20:47:34 33° ENE 20:52:03 10° N
Cosmos 1140 Rocket 3.4 20:42:27 10° SSW 20:47:42 85° ESE 20:52:59 10° NNE
Spot 2 Rocket 3.4 20:47:00 38° SSE 20:49:01 81° ENE 20:54:10 10° NNW
Cosmos 1818 4.1 20:44:12 10° SW 20:49:35 59° NW 20:55:02 10° NNE
Cosmos 2233 Rocket 3.9 20:43:23 10° N 20:49:40 75° E 20:52:42 32° SSE
Resurs 1-3 4.3 20:47:53 19° S 20:50:48 53° W 20:55:08 10° NNW
Cosmos 2123 Rocket 4.0 20:47:39 10° SSW 20:53:50 80° W 21:00:04 10° N
COBE Rocket 4.2 20:49:19 10° N 20:54:15 67° WNW 20:59:00 10° SSW
USA 238 DEB 3.6 20:48:16 10° SSW 20:54:59 69° SE 21:01:53 10° NE
USA 238 3.6 20:48:23 10° SSW 20:55:04 68° SE 21:01:59 10° NE
USA 234 3.7 20:52:10 29° E 20:55:23 54° NNE 21:01:43 10° NW
Cosmos 1954 Rocket 3.9 20:50:42 10° SSW 20:56:01 84° ESE 21:01:22 10° NNE
Cosmos 676 Rocket 4.0 20:51:01 10° SSW 20:56:21 88° WNW 21:01:44 10° NNE
CZ-4C R/B 3.3 20:50:30 10° NW 20:57:33 62° SW 21:02:13 26° SSE
Cosmos 1674 4.0 20:54:34 10° NNW 20:58:06 38° W 20:59:56 23° SW
Cosmos 1763 Rocket 4.1 20:54:34 10° N 20:59:35 39° ENE 20:59:51 39° ENE
Cosmos 468 Rocket 4.1 20:58:52 10° NNW 21:04:05 56° ENE 21:04:29 54° E
Cosmos 1726 Rocket 3.7 21:08:00 59° NNE 21:08:00 59° NNE 21:11:37 10° NNE
Cosmos 1470 4.0 21:09:44 33° NNE 21:09:44 33° NNE 21:12:03 10° NNE
H-2A R/B 2.7 21:07:01 24° S 21:10:07 55° W 21:15:22 10° NNW
SL-14 R/B 3.6 21:06:33 10° NNW 21:09:49 62° NNW 21:09:49 62° NNW
Cosmos 2322 Rocket 2.2 21:14:20 58° E 21:14:20 58° E 21:19:15 10° NNE
SPOT 5 3.6 21:24:17 42° NE 21:24:17 42° NE 21:27:59 10° N
Cosmos 1626 3.5 21:20:20 10° N 21:22:36 35° NNW 21:22:36 35° NNW
Cosmos 1891 Rocket 4.5 21:21:43 10° N 21:27:47 59° ENE 21:27:47 59° ENE
Cosmos 1953 Rocket 4.2 21:23:46 10° NNW 21:27:59 50° W 21:28:05 50° W
Resurs 01 Rocket 3.4 21:26:13 19° SW 21:28:20 28° W 21:32:10 10° NW
Cosmos 2228 3.7 21:31:09 52° NNW 21:31:09 52° NNW 21:34:37 10° N
ADEOS Rocket 3.6 21:27:55 10° NNE 21:31:34 37° NE 21:31:34 37° NE
Cosmos 2263 Rocket 3.0 21:29:39 10° NW 21:34:55 44° WSW 21:36:07 39° SW
Meteor 1-21 Rocket 4.4 21:31:58 10° NNW 21:37:28 64° W 21:38:15 57° SW
SL-16 R/B 2.2 21:35:12 37° SW 21:37:31 82° WNW 21:43:15 10° NNE
SPOT 1/Viking Rocket 3.8 21:45:21 66° N 21:45:21 66° N 21:49:50 10° NNW
NOSS 3-2 (A) 3.4 21:40:54 10° SW 21:46:48 83° NW 21:53:34 10° NE
CZ-2C R/B 4.0 21:42:05 10° NNE 21:44:26 26° NE 21:44:26 26° NE
Cosmos 1953 4.2 21:50:22 28° NNW 21:50:22 28° NNW 21:52:31 10° N
Cosmos 2058 Rocket 4.4 21:51:49 35° NNW 21:51:49 35° NNW 21:54:32 10° N
CZ-2C R/B 3.5 21:52:05 56° W 21:52:05 56° W 21:56:50 10° NNW
Cosmos 1844 4.2 21:46:22 10° NNW 21:51:16 50° NNE 21:51:16 50° NNE
GEOS 3 Rocket 3.9 21:56:53 65° NW 21:56:53 65° NW 22:01:17 10° NW
Cosmos 1570 Rocket 4.5 21:51:02 10° NNW 21:55:48 59° WNW 21:55:48 59° WNW
ATLAS 3B R/B 2.5 21:55:47 10° SW 22:02:42 88° NW 22:09:27 10° NE
Cosmos 2360 Rocket 3.9 22:07:16 23° NE 22:07:16 23° NE 22:09:15 10° NNE
Cosmos 1980 Rocket 4.4 22:04:10 10° W 22:08:37 23° NW 22:13:06 10° N
CENTAUR R/B 4.2 22:13:17 23° NE 22:13:17 23° NE 22:15:46 10° NE
Cosmos 2278 Rocket 3.6 22:04:09 10° NNW 22:08:11 29° NNE 22:08:11 29° NNE
Cosmos 2034 Rocket 4.1 22:06:01 10° N 22:11:47 74° NNW 22:11:47 74° NNW
Terra 3.3 22:14:54 34° N 22:14:54 34° N 22:17:35 10° NNW
Cosmos 1464 Rocket 4.2 22:09:57 10° NNW 22:15:46 62° W 22:15:46 62° W
Cosmos 1844 Rocket 3.5 22:18:55 10° NNW 22:22:56 48° NW 22:22:56 48° NW
ERS-1 Rocket 4.4 22:27:22 34° WNW 22:27:22 34° WNW 22:30:59 10° NNW
USA 234 3.6 22:39:30 59° W 22:39:30 59° W 22:44:50 10° WNW
Cosmos 2322 Rocket 4.0 22:55:54 21° W 22:58:11 28° NW 23:03:00 10° NNE
ADEOS Rocket 4.4 23:14:00 10° N 23:18:31 30° WNW 23:18:31 30° WNW
SL-16 R/B 4.5 23:18:28 10° W 23:22:33 20° NW 23:26:40 10° N
Cosmos 2360 Rocket 4.2 23:48:58 24° NNW 23:48:58 24° NNW 23:52:49 10° N
Cosmos 2237 Rocket 4.5 23:57:06 18° NNE 23:57:06 18° NNE 23:58:24 10° NNE
Cosmos 2278 Rocket 4.3 23:48:02 10° NW 23:50:02 22° NW 23:50:02 22° NW
Cosmos 2219 Rocket 4.3 23:57:15 22° NNE 23:57:15 22° NNE 23:59:14 10° NNE
